Temperature
-0 0 1 1 1 2 2 2 2 2 3 3 3 3 4 4 4 4 5 5 5 5 6 6 6 7 7 7 8 8 8 8 8 8 7 7 7 7 8 8 8 7 8
-1 -0 0 0 1 1 1 1 2 2 2 2 2 3 3 3 3 4 4 4 4 5 5 6 6 6 7 7 7 7 7 7 7 7 7 7 7 7 7 7 7 7 7
-1 -1 -1 -0 0 0 1 1 1 1 2 2 2 2 2 3 3 3 4 4 4 4 5 5 5 6 6 6 6 7 7 7 7 7 7 7 6 6 6 6 7 7 7
-1 -1 -1 -1 -0 -0 0 0 1 1 1 1 1 2 2 2 2 3 3 3 3 4 4 4 5 5 5 6 6 6 6 6 6 6 6 6 6 6 6 6 6 6 6
-2 -2 -1 -1 -1 -1 -0 -0 0 0 0 0 1 1 1 2 2 2 2 2 3 3 4 4 4 4 5 5 5 6 6 6 6 6 6 6 5 5 6 6 6 6 6
-3 -2 -2 -2 -2 -1 -1 -1 -0 -0 -0 -0 0 1 1 1 1 2 2 2 2 3 3 3 4 4 4 5 5 5 5 5 5 5 5 5 5 5 6 5 5 5 5
-3 -3 -3 -3 -2 -2 -2 -2 -1 -1 -1 -1 -0 -0 0 1 1 1 1 1 1 2 2 2 3 3 4 4 4 4 5 5 5 5 5 5 5 5 5 5 5 5 5
-4 -4 -3 -3 -3 -3 -2 -2 -2 -2 -2 -1 -1 -1 -0 0 0 0 1 1 1 1 1 2 2 3 3 3 3 4 4 4 4 4 4 5 5 5 5 5 5 4 4
-5 -4 -4 -4 -4 -3 -3 -3 -3 -3 -2 -2 -2 -1 -1 -1 -1 -0 -0 0 0 1 1 1 2 2 2 2 3 3 3 3 3 3 3 3 4 4 4 4 4 3 3
-5 -5 -5 -5 -4 -4 -4 -4 -3 -3 -3 -3 -2 -2 -2 -1 -1 -1 -1 -1 -0 -0 0 1 1 1 1 2 2 2 2 2 2 2 3 3 3 3 3 3 3 3 3
-6 -5 -5 -5 -5 -5 -5 -4 -4 -4 -4 -3 -3 -3 -2 -2 -2 -2 -1 -1 -1 -1 -1 -0 0 1 1 1 1 1 2 2 2 2 2 2 2 2 2 2 2 3 3
-6 -6 -6 -5 -5 -5 -5 -5 -5 -5 -4 -4 -4 -4 -3 -3 -3 -3 -2 -2 -2 -1 -1 -1 -0 -0 0 0 0 1 1 1 1 1 1 1 1 1 1 2 2 2 2
-7 -6 -6 -6 -6 -6 -6 -6 -5 -5 -5 -5 -5 -5 -4 -4 -4 -3 -3 -3 -2 -2 -2 -2 -1 -1 -1 -0 -0 -0 -0 0 0 0 0 0 1 1 1 1 1 1 1
-7 -7 -7 -6 -6 -6 -6 -6 -6 -6 -6 -5 -5 -5 -5 -5 -4 -4 -4 -3 -3 -3 -3 -2 -2 -2 -2 -1 -1 -1 -1 -1 -1 -0 -0 -0 -0 -0 -1 -0 -0 -0 -0
-8 -7 -7 -7 -7 -7 -7 -7 -7 -6 -6 -6 -6 -6 -5 -5 -5 -5 -4 -4 -4 -4 -4 -3 -3 -3 -3 -2 -2 -2 -1 -1 -1 -1 -1 -1 -1 -1 -1 -1 -1 -1 -1
-8 -8 -8 -8 -8 -7 -7 -7 -7 -7 -7 -6 -6 -6 -6 -6 -5 -5 -5 -5 -4 -4 -4 -4 -4 -4 -3 -3 -3 -2 -2 -2 -2 -2 -2 -2 -2 -2 -2 -2 -2 -2 -1
-9 -8 -8 -8 -8 -8 -8 -8 -7 -7 -7 -7 -7 -7 -6 -6 -6 -6 -5 -5 -5 -5 -5 -5 -4 -4 -4 -4 -4 -3 -3 -3 -3 -3 -3 -3 -3 -3 -2 -2 -2 -2 -2
-9 -9 -9 -9 -9 -9 -8 -8 -8 -8 -8 -7 -7 -7 -7 -7 -7 -6 -6 -6 -6 -5 -5 -5 -5 -5 -5 -5 -5 -4 -4 -4 -4 -3 -3 -3 -3 -3 -3 -3 -3 -3 -3
-9 -9 -9 -9 -9 -9 -9 -9 -9 -9 -8 -8 -8 -8 -7 -7 -7 -7 -7 -6 -6 -6 -6 -6 -6 -6 -6 -6 -5 -5 -5 -5 -5 -4 -4 -4 -4 -4 -4 -3 -3 -3 -3
-10 -10 -10 -10 -9 -9 -9 -9 -9 -9 -9 -9 -9 -9 -8 -8 -8 -8 -7 -7 -7 -7 -7 -7 -6 -6 -6 -6 -6 -6 -5 -5 -5 -5 -5 -5 -4 -4 -4 -4 -4 -4 -4
-10 -10 -10 -10 -10 -10 -10 -10 -10 -10 -10 -10 -10 -9 -9 -9 -9 -9 -8 -8 -8 -8 -8 -7 -7 -7 -7 -6 -6 -6 -6 -6 -6 -6 -6 -5 -5 -5 -5 -5 -4 -4 -4
-11 -11 -10 -10 -10 -10 -10 -10 -10 -10 -10 -10 -10 -10 -10 -9 -9 -9 -9 -9 -9 -8 -8 -8 -8 -7 -7 -7 -7 -7 -6 -6 -6 -6 -6 -6 -6 -6 -5 -5 -5 -5 -5
-11 -11 -11 -11 -11 -11 -11 -11 -11 -11 -11 -11 -10 -10 -10 -10 -10 -10 -9 -9 -9 -9 -9 -8 -8 -8 -8 -8 -7 -7 -7 -7 -7 -7 -7 -6 -6 -6 -6 -6 -6 -5 -5
-11 -11 -11 -11 -11 -11 -11 -11 -11 -11 -11 -11 -11 -11 -11 -10 -10 -10 -10 -10 -9 -9 -9 -9 -9 -9 -8 -8 -8 -8 -7 -7 -7 -7 -7 -7 -7 -7 -6 -6 -6 -6 -6
-12 -12 -12 -12 -12 -12 -12 -11 -11 -11 -11 -11 -11 -11 -11 -11 -11 -10 -10 -10 -10 -10 -9 -9 -9 -9 -9 -9 -8 -8 -8 -8 -8 -7 -7 -7 -7 -7 -7 -7 -7 -6 -6
-12 -12 -12 -12 -12 -12 -12 -12 -12 -12 -12 -12 -11 -11 -11 -11 -11 -11 -11 -10 -10 -10 -10 -10 -9 -9 -9 -9 -9 -9 -8 -8 -8 -8 -8 -7 -7 -7 -7 -7 -7 -7 -7
Wind_Speed
5 5 4 4 3 3 3 3 3 3 3 4 4 4 4 4 4 4 4 4 5 5 5 6 6 5 4 4 4 4 4 4 4 2 2 3 4 5 6 8 9 8 8
5 5 4 4 4 4 3 3 3 3 3 4 5 4 3 4 3 4 5 5 5 6 6 6 6 5 6 5 5 6 5 4 5 5 3 3 4 5 5 5 7 8 8
5 5 4 4 4 4 4 4 3 3 4 5 4 4 4 4 4 3 4 5 5 6 6 6 6 6 7 6 6 6 5 4 4 5 4 3 2 3 4 3 4 5 7
5 5 4 4 4 4 4 4 4 4 4 4 4 4 4 5 5 4 4 4 5 5 6 6 7 7 7 8 6 6 5 5 5 5 5 4 3 3 4 4 3 4 4
5 5 5 5 4 4 4 4 4 4 5 5 4 4 4 4 5 4 4 5 5 6 5 6 6 6 7 6 6 6 5 5 5 5 5 4 4 4 6 4 4 4 4
6 5 5 5 5 4 4 4 5 4 4 5 4 4 4 5 6 7 5 5 5 5 6 5 5 6 6 7 7 7 7 7 7 6 5 6 6 6 5 5 4 3 3
6 5 5 5 5 5 5 5 5 5 5 4 4 4 4 5 7 7 7 5 5 5 6 5 5 4 5 4 5 5 6 7 9 8 8 7 7 7 7 6 6 5 4
5 5 5 5 6 6 5 5 5 4 4 4 4 4 4 5 6 7 7 5 4 5 5 5 5 5 5 5 4 3 3 5 6 6 6 6 6 6 7 7 6 4 1
5 6 6 5 6 6 6 5 4 4 4 4 4 4 4 4 6 6 6 3 4 4 4 5 5 5 6 6 5 4 4 4 3 4 5 5 6 7 7 4 5 4 3
6 6 6 5 6 6 6 5 4 4 4 4 4 4 3 4 6 6 5 3 3 3 3 4 6 6 6 6 6 6 6 5 3 2 2 3 3 5 6 6 6 6 4
6 6 6 6 5 5 5 4 4 4 4 3 4 4 3 4 5 6 5 3 3 3 3 3 3 4 5 6 7 6 7 5 3 3 3 3 2 3 3 4 5 5 5
6 6 6 6 5 5 4 4 4 3 3 3 3 3 3 3 4 5 5 4 4 3 3 3 3 4 4 5 5 6 6 5 3 3 3 3 3 3 3 3 4 3 3
6 6 6 6 5 5 4 4 4 3 2 3 2 3 3 3 4 6 6 5 5 3 2 3 3 3 3 2 3 4 4 4 4 3 4 3 3 3 2 2 3 3 2
6 6 6 6 6 5 4 3 3 3 2 2 2 3 3 3 3 3 3 3 3 3 2 2 2 2 2 2 2 2 2 2 3 4 3 3 2 2 2 2 2 2 1
6 6 6 5 5 5 5 4 4 3 3 3 2 3 3 3 4 5 4 3 2 2 1 1 0 0 1 1 1 1 1 1 2 2 2 3 3 2 2 1 1 2 2
6 6 5 4 4 4 4 5 6 6 7 7 6 5 4 5 5 5 5 5 4 2 1 0 1 1 1 2 2 1 1 1 2 2 2 2 3 3 2 1 2 2 3
5 5 4 4 4 4 4 4 5 6 7 7 7 7 6 5 5 5 4 4 3 2 1 0 1 1 1 1 1 1 1 1 1 2 2 2 2 2 3 3 3 3 3
6 6 5 4 4 4 4 4 4 4 5 5 6 7 6 6 6 5 4 3 2 2 1 1 1 1 1 1 1 1 1 1 1 1 1 2 2 3 3 3 3 4 4
5 4 4 4 3 3 3 3 3 4 3 4 4 5 6 6 6 5 4 2 1 2 1 1 1 1 1 1 1 1 1 1 1 1 1 2 2 3 3 3 3 4 4
5 7 6 4 3 3 3 3 4 3 3 3 4 4 4 4 3 3 3 2 2 2 1 1 1 1 1 1 1 1 1 1 1 1 1 1 2 2 3 3 3 3 3
5 5 7 5 4 4 4 4 3 3 3 3 3 4 5 3 2 3 3 2 2 2 2 2 2 2 1 1 1 1 1 1 1 1 2 1 2 2 2 2 3 3 3
4 4 4 4 4 4 4 4 3 3 3 4 3 4 6 3 2 2 3 3 2 2 2 2 2 2 2 1 1 1 1 2 1 1 2 2 2 2 2 2 2 2 2
4 4 4 4 4 5 5 4 3 3 3 3 3 3 3 3 3 2 3 3 2 3 3 3 2 2 2 2 2 2 2 3 2 2 2 2 2 2 2 2 2 3 3
4 4 4 4 4 4 4 3 3 3 3 3 3 3 3 3 3 3 3 3 3 3 3 3 3 3 4 3 3 3 3 3 3 3 3 3 3 2 2 2 2 3 3
4 4 4 4 4 4 4 3 3 3 3 4 3 3 3 3 3 3 3 3 3 3 3 4 3 3 4 4 4 4 5 5 4 3 2 3 3 3 2 3 2 2 2
4 4 4 4 4 4 4 4 4 4 3 4 3 3 3 3 3 3 3 3 3 3 3 4 4 5 5 5 5 5 5 5 5 4 3 2 3 2 2 2 3 3 3
Wind_Direction
322 315 314 306 303 292 277 256 243 254 252 258 260 256 249 248 240 224 233 230 230 229 230 226 224 218 213 214 207 205 207 192 206 226 201 182 177 181 188 191 192 191 195
322 319 314 315 313 300 293 289 260 243 253 258 256 247 252 257 254 235 233 234 234 229 227 228 229 221 218 216 212 210 209 199 191 198 201 196 197 191 189 188 193 196 197
323 317 316 317 314 309 306 304 290 261 252 260 254 242 242 247 248 244 237 239 240 239 232 229 229 223 222 220 216 210 206 201 192 190 198 205 200 192 191 195 194 192 198
322 316 317 316 309 308 306 305 296 275 255 258 253 250 250 251 248 245 242 250 250 249 242 236 230 225 225 218 218 211 200 193 187 186 192 197 199 197 190 195 208 205 202
320 319 317 314 311 310 308 303 300 289 273 268 259 256 256 255 252 245 237 247 252 250 248 244 239 232 234 227 223 206 196 197 192 194 198 199 197 195 204 198 209 208 215
317 318 322 319 316 314 310 306 298 289 279 274 264 257 255 261 264 262 254 243 249 252 249 247 242 234 234 233 232 216 200 199 197 201 210 208 208 208 203 195 197 204 226
313 317 324 323 318 312 314 313 305 293 280 273 276 272 265 271 271 266 262 254 249 251 248 241 239 237 233 225 221 215 218 213 205 205 208 213 210 208 197 199 206 213 224
308 315 321 322 315 311 310 304 302 296 289 283 282 281 275 275 274 269 266 258 254 254 252 242 231 224 225 217 214 218 234 234 218 212 212 216 215 209 205 204 202 206 241
313 320 322 320 314 310 306 304 304 302 299 296 290 282 278 280 277 269 264 252 249 254 252 246 235 227 220 211 206 213 231 255 237 210 210 212 209 204 194 177 177 190 230
320 315 311 311 310 308 306 303 301 296 293 291 291 284 276 275 281 277 270 243 251 256 256 249 236 228 218 209 206 207 218 229 219 210 205 205 199 196 195 197 193 199 211
317 314 308 306 306 305 307 307 302 301 301 295 292 291 288 284 285 285 285 260 249 256 255 249 242 232 225 223 223 218 220 218 207 199 200 192 184 190 195 198 199 201 204
319 317 316 316 315 315 312 312 311 309 303 300 301 305 304 299 299 297 299 291 280 260 254 253 248 241 236 235 229 217 217 216 206 198 196 201 200 201 201 187 179 181 181
323 321 322 325 325 322 316 315 317 314 302 301 298 302 308 312 313 311 309 310 302 286 269 268 265 262 256 240 231 220 213 201 189 197 202 207 206 199 178 158 134 129 96
325 324 324 327 326 326 323 319 316 315 306 300 299 303 305 310 312 306 299 303 308 302 293 277 267 266 259 242 243 241 221 199 191 196 196 186 172 172 185 186 184 168 147
324 325 326 327 324 328 327 326 323 318 305 303 290 292 300 303 304 309 306 301 298 282 292 297 289 241 228 223 225 235 215 188 202 192 187 178 177 179 202 194 200 192 200
324 325 325 326 326 326 328 330 330 321 323 324 323 312 304 305 308 318 323 324 328 316 309 275 260 248 236 226 216 206 199 195 197 185 192 183 179 184 187 184 185 190 193
316 317 319 321 323 324 326 328 326 326 326 330 331 327 317 320 329 333 332 334 341 351 17 329 287 278 270 253 221 205 211 201 177 177 188 187 181 186 189 193 196 198 202
316 315 316 313 315 316 318 317 317 320 326 326 326 330 335 336 337 341 343 350 352 360 8 326 308 305 294 279 253 211 192 189 180 177 191 199 193 192 197 201 203 204 206
315 316 315 312 315 316 316 316 314 315 320 324 332 338 345 347 347 347 348 360 355 348 346 331 315 313 295 262 241 218 192 198 190 189 203 215 211 202 203 204 206 207 205
312 315 318 317 318 318 317 315 317 318 322 326 329 333 337 342 346 347 354 356 349 338 331 323 315 313 306 273 229 200 196 203 194 204 211 219 224 213 208 206 206 204 206
311 315 318 319 316 315 315 313 312 313 315 316 315 321 327 334 332 334 339 342 337 330 328 326 321 322 320 319 285 232 218 229 223 213 215 219 221 226 223 215 212 208 207
311 311 314 310 309 311 309 310 309 308 309 309 311 321 330 333 331 328 326 327 330 328 326 325 321 318 316 298 286 263 246 242 240 227 225 225 222 223 219 213 210 210 208
312 312 311 310 309 308 310 312 312 311 310 311 312 316 322 323 320 319 317 320 324 327 329 328 321 322 322 320 304 276 249 245 245 228 223 229 229 229 223 212 202 199 207
310 310 310 311 313 312 310 312 313 310 309 308 309 311 311 312 313 312 311 314 317 322 324 320 312 304 306 314 319 311 294 276 266 247 222 215 221 231 223 207 202 203 206
310 309 308 308 310 312 313 311 310 310 309 309 307 307 310 313 316 317 320 320 317 318 318 316 314 311 309 310 311 308 299 293 284 272 242 218 217 216 211 207 203 199 210
311 309 308 308 309 310 310 309 309 306 304 304 305 305 307 309 310 310 310 311 311 311 311 308 304 300 300 302 302 301 300 294 282 271 252 229 213 213 206 206 199 200 198
Height
1479 1478 1478 1478 1479 1480 1481 1481 1483 1484 1485 1486 1488 1489 1490 1492 1494 1495 1497 1499 1502 1504 1507 1509 1511 1513 1516 1518 1520 1522 1524 1526 1526 1528 1531 1533 1535 1536 1538 1539 1541 1542 1542
1476 1475 1474 1475 1476 1476 1477 1477 1479 1480 1481 1483 1484 1485 1486 1487 1488 1490 1492 1494 1496 1498 1500 1503 1505 1507 1510 1512 1514 1517 1519 1520 1522 1523 1525 1528 1530 1532 1533 1535 1536 1537 1538
1473 1472 1471 1471 1472 1472 1473 1473 1474 1476 1477 1478 1479 1480 1481 1482 1484 1485 1487 1489 1491 1493 1495 1496 1499 1502 1504 1506 1508 1511 1513 1515 1517 1519 1520 1522 1524 1527 1528 1529 1530 1532 1533
1470 1469 1468 1467 1468 1468 1469 1469 1470 1471 1472 1472 1474 1475 1477 1477 1479 1481 1482 1484 1486 1487 1489 1491 1493 1495 1498 1500 1502 1505 1507 1509 1512 1513 1515 1517 1519 1521 1522 1524 1525 1526 1527
1468 1466 1464 1464 1464 1464 1465 1465 1466 1466 1467 1467 1469 1470 1471 1472 1474 1476 1477 1478 1480 1481 1483 1485 1487 1489 1492 1495 1497 1499 1501 1503 1505 1507 1509 1511 1512 1514 1516 1517 1519 1520 1521
1464 1462 1461 1461 1460 1460 1460 1461 1461 1462 1462 1463 1464 1465 1466 1467 1469 1471 1472 1473 1475 1476 1477 1479 1481 1483 1486 1489 1491 1493 1495 1497 1498 1501 1502 1504 1506 1508 1510 1512 1513 1514 1515
1460 1459 1458 1458 1457 1457 1456 1456 1456 1457 1457 1458 1459 1460 1460 1462 1463 1466 1467 1468 1469 1470 1471 1473 1475 1477 1480 1482 1485 1487 1488 1490 1493 1494 1496 1497 1500 1502 1504 1506 1507 1508 1508
1458 1456 1455 1454 1454 1453 1452 1452 1452 1452 1453 1453 1454 1455 1456 1457 1459 1461 1462 1462 1463 1464 1466 1467 1469 1471 1473 1476 1478 1480 1482 1484 1486 1488 1490 1492 1494 1497 1499 1500 1501 1502 1503
1454 1453 1452 1451 1450 1449 1448 1448 1448 1448 1448 1449 1449 1451 1451 1452 1454 1456 1457 1457 1458 1459 1461 1462 1463 1465 1467 1470 1472 1474 1476 1477 1480 1482 1484 1486 1488 1490 1493 1494 1495 1496 1496
1452 1451 1450 1449 1447 1446 1445 1444 1444 1444 1444 1445 1446 1447 1447 1448 1449 1451 1452 1452 1453 1454 1455 1456 1458 1460 1462 1464 1466 1468 1469 1471 1473 1475 1477 1479 1481 1483 1486 1487 1488 1489 1490
1450 1449 1447 1446 1444 1443 1442 1441 1441 1441 1441 1441 1442 1443 1443 1444 1445 1446 1447 1447 1448 1448 1449 1451 1453 1455 1456 1458 1460 1462 1463 1466 1468 1469 1471 1473 1475 1477 1479 1481 1482 1484 1485
1447 1445 1444 1443 1442 1440 1439 1439 1438 1438 1438 1438 1438 1438 1439 1440 1441 1441 1442 1443 1444 1444 1445 1446 1448 1450 1451 1453 1454 1456 1458 1461 1462 1464 1465 1467 1469 1471 1473 1474 1476 1478 1479
1444 1442 1441 1440 1439 1438 1437 1436 1435 1435 1435 1434 1435 1434 1435 1435 1436 1437 1438 1438 1439 1440 1440 1441 1443 1445 1446 1448 1449 1451 1453 1455 1456 1458 1459 1461 1464 1466 1467 1468 1470 1472 1473
1442 1440 1438 1437 1436 1435 1434 1433 1433 1432 1432 1432 1432 1431 1431 1431 1432 1433 1433 1434 1435 1436 1436 1437 1438 1440 1441 1442 1444 1445 1447 1449 1451 1453 1454 1456 1459 1461 1462 1463 1464 1466 1467
1439 1437 1436 1435 1434 1432 1431 1431 1430 1429 1430 1430 1429 1429 1428 1428 1429 1430 1430 1430 1431 1431 1432 1433 1434 1435 1436 1437 1439 1440 1442 1444 1446 1448 1450 1451 1453 1455 1456 1458 1459 1460 1461
1438 1436 1434 1433 1432 1430 1429 1428 1428 1428 1427 1427 1427 1427 1426 1426 1426 1426 1426 1427 1427 1429 1429 1429 1430 1431 1432 1433 1434 1435 1437 1439 1441 1443 1445 1446 1448 1449 1451 1453 1454 1455 1456
1436 1434 1433 1432 1430 1429 1427 1426 1425 1425 1424 1424 1423 1423 1423 1423 1423 1423 1423 1423 1424 1425 1425 1425 1426 1427 1428 1429 1430 1431 1432 1434 1436 1438 1440 1442 1443 1445 1446 1447 1449 1450 1451
1435 1433 1432 1430 1429 1427 1426 1425 1423 1422 1420 1419 1420 1420 1420 1420 1420 1420 1421 1421 1420 1421 1422 1422 1423 1423 1424 1425 1426 1427 1429 1430 1432 1434 1436 1438 1439 1440 1441 1442 1443 1445 1447
1433 1431 1430 1429 1427 1426 1425 1423 1422 1421 1419 1418 1417 1417 1417 1417 1418 1418 1418 1418 1418 1418 1419 1420 1420 1421 1421 1422 1423 1424 1426 1427 1429 1430 1432 1434 1435 1436 1436 1437 1439 1440 1442
1431 1430 1428 1427 1426 1424 1423 1422 1420 1419 1418 1417 1416 1415 1415 1415 1415 1415 1415 1415 1416 1416 1417 1417 1417 1418 1418 1419 1420 1421 1423 1424 1425 1427 1428 1430 1431 1431 1432 1433 1434 1435 1436
1429 1428 1426 1425 1424 1422 1421 1420 1419 1418 1417 1415 1415 1414 1415 1414 1413 1412 1412 1413 1413 1413 1414 1414 1414 1415 1415 1416 1417 1418 1419 1420 1422 1423 1424 1425 1426 1427 1428 1429 1430 1431 1432
1427 1426 1424 1423 1422 1420 1419 1418 1417 1416 1415 1414 1413 1413 1412 1412 1411 1410 1410 1410 1410 1411 1411 1411 1411 1412 1412 1413 1414 1415 1416 1417 1418 1419 1420 1421 1422 1423 1423 1424 1425 1426 1428
1425 1424 1423 1421 1420 1418 1417 1416 1415 1414 1413 1412 1412 1411 1410 1409 1408 1408 1408 1408 1408 1408 1408 1409 1409 1409 1409 1410 1411 1411 1412 1413 1414 1415 1416 1417 1418 1418 1419 1420 1421 1422 1424
1423 1422 1420 1419 1418 1416 1415 1414 1413 1412 1412 1411 1410 1409 1408 1407 1406 1406 1406 1405 1405 1405 1405 1406 1406 1406 1406 1407 1407 1408 1408 1409 1410 1411 1412 1413 1414 1415 1415 1416 1417 1418 1420
1421 1420 1418 1417 1416 1415 1413 1412 1411 1410 1409 1408 1407 1407 1406 1405 1404 1404 1403 1403 1403 1402 1402 1402 1403 1403 1403 1403 1404 1404 1405 1406 1407 1408 1409 1409 1410 1411 1412 1413 1413 1415 1416
1419 1418 1416 1415 1414 1413 1412 1410 1409 1408 1407 1406 1405 1404 1404 1403 1402 1401 1401 1400 1400 1399 1399 1399 1399 1399 1399 1400 1400 1401 1401 1402 1403 1404 1405 1406 1407 1408 1409 1409 1410 1411 1412